sat.trackr.live / text

‹ back to catalog

STARLINK-5729

NORAD 55596 · 2023-020AD

PAYLOAD ACTIVE UNKNOWN

§ Identity

Operator
Country
US
Launch date
2023-02-12
Launch site
AFETR
Launch vehicle
Mass (kg)
RCS (m²)

Purposes: comms

External: N2YO · Heavens-Above · Gunter

§ Orbital elements

Epoch: 2026-05-25T02:56:30.931008Z

Period
94.27 min
Inclination
43.0036°
Eccentricity
0.0001183
Mean motion
15.27574733 rev/d
Perigee alt
482.3 km
Apogee alt
483.9 km
Semi-major
6,861.2 km
B*
1.0930e-5
RAAN
293.4269°
Arg perigee
272.7501°
Mean anomaly
87.3215°
Rev number
18,060

§ Raw data

STARLINK-57291 55596U 23020AD  26145.12258022  .00000039  00000+0  10930-4 0  99952 55596  43.0036 293.4269 0001183 272.7501  87.3215 15.27574733180605

JSON: /api/v1/satellites/55596 · /tle

For live sub-satellite position, see the globe view (requires WebGL).

§ Visibility from observer

Set your observer location to see the next 7 days of passes ≥ 10°. The values pass through the URL so the page stays shareable.

No JS? Fill the form by hand. The geolocation button needs JavaScript.